Home   Weather   Bryansk   Past weeks

Flag for Russia Past Weather in Bryansk, Russia — Yesterday and Last 2 Weeks

Now
34 °F

Snow flurries. Mostly cloudy.


Feels Like: 24 °F
Forecast: 29 / 38 °F
Wind: 15 mph from South

Location: Brjansk

Current Time: Feb 24, 2017 at 9:21:26 am

Latest Report: Feb 24, 2017 at 8:30 am


Visibility: 4 mi

Pressure: 29.27 "Hg

Humidity: 93%

Dew Point: 32 °F

Location of BryanskLocation

Past Weather in Bryansk — Graph

°F

Bryansk Temperature Yesterday

Maximum temperature yesterday: 36 °F (at 2:30 pm)
Minimum temperature yesterday: 32 °F (at 4:00 am)
Average temperature yesterday: 34 °F

High & Low Weather Summary for the Past Weeks

 TemperatureHumidityPressure
High37 °F (Feb 20, 4:00 pm)100% (Feb 10, 7:30 am)30.69 "Hg (Feb 10, 7:30 am)
Low-2 °F (Feb 9, 8:30 am)48% (Feb 15, 3:30 pm)29.12 "Hg (Feb 23, 9:30 am)
Average28 °F83%30.02 "Hg
* Reported Feb 9 8:00 am — Feb 24 8:00 am, Bryansk, Weather by CustomWeather, © 2017

Note: Actual official high and low records may vary slightly from our data, if they occured in-between our weather recording intervals... More about our weather records

Advertising

Bryansk Weather History for the Previous 24 Hours

Scroll right to see more
 ConditionsComfort  
Time TempWeatherWind HumidityBarometerVisibility
8:00 am
Fri, Feb 24
34 °FLight snow. Mostly cloudy.13 mph87%29.27 "Hg4 mi
7:30 am34 °FClear.13 mph87%29.30 "Hg10 mi
7:00 am34 °FOvercast.13 mph93%29.30 "HgN/A
6:00 am36 °FOvercast.10 mph87%29.33 "HgN/A
5:00 am36 °FOvercast.10 mph87%29.36 "HgN/A
6:00 pm
Thu, Feb 23
36 °FPartly sunny.10 mph87%29.21 "HgN/A
5:30 pm36 °FPartly sunny.13 mph87%29.21 "HgN/A
5:00 pm36 °FOvercast.10 mph87%29.21 "HgN/A
4:30 pm36 °FPartly sunny.10 mph87%29.18 "HgN/A
4:00 pm36 °FOvercast.10 mph87%29.18 "HgN/A
3:30 pm36 °FOvercast.13 mph87%29.18 "HgN/A
3:00 pm36 °FOvercast.13 mph87%29.18 "HgN/A
2:30 pm36 °FOvercast.8 mph87%29.18 "HgN/A
2:00 pm34 °FOvercast.10 mph87%29.18 "HgN/A
1:30 pm34 °FPartly sunny.13 mph87%29.15 "HgN/A
1:00 pm34 °FSprinkles. Mostly cloudy.13 mph87%29.15 "HgN/A
12:30 pm34 °FMostly cloudy.13 mph93%29.15 "HgN/A
12:00 pm34 °FMostly cloudy.13 mph93%29.15 "HgN/A
11:30 am34 °FMostly cloudy.8 mph93%29.12 "Hg5 mi
11:00 am34 °FSnow flurries. Fog.8 mph100%29.12 "Hg2 mi
10:30 am32 °FSnow showers. Ice fog.8 mph100%29.12 "Hg1 mi
10:00 am34 °FSnow showers. Fog.6 mph93%29.12 "Hg1 mi
9:30 am32 °FSnow showers. Ice fog.8 mph100%29.12 "Hg1 mi
9:00 am32 °FSnow showers. Ice fog.6 mph100%29.15 "Hg1 mi
Weather by CustomWeather, © 2017

See weather overviewHow to use our weather pages